STARLINK-11555, 62915

Orbit data source: Space-Track

STARLINK-11555, 62915 is a payload satellite owned by SpaceX/Seattle (US) in LEO that was launched on Sat, 08 Feb 2025 UTC via an FALCON 9 launch vehicle from the Air Force Eastern Test Range (AFETR). Payload-class satellites include a variety of spacecraft equipped with specific instruments for various scientific and technological missions. These include communications satellites like Starlink; space stations such as the ISS; scientific satellites like the Hubble; Earth observation satellites from companies like Planet Labs, Umbra, and HawkEye 360; GPS; miniature CubeSats for education and research; and military/defense satellites.

Loading next visibility...
Identifier
62915, 2025-027J
Orbit
LEO
Last TLE update
8 hours ago
Origin
Manufacturer
SpaceX/Seattle
Mission
Operational Commercial Communications
Bus & Motor
STARLINK V2M, Unknown motor
Mass
730 kg wet, ~700 kg dry
Launch date (UTC)
2025-02-08 (5 months ago)
Launch vehicle
FALCON 9
Launch site
Air Force Eastern Test Range (AFETR)
Object type
Payload
Rocket body
Debris
Shape & HBR
Box + 2 Pan, 29 m
Radar Cross Section
36.964 m², Large (>1 m²)

Expand to show TLE details & history

TLE from 8 hours ago
0 STARLINK-11555
1 62915U 25027J   25191.78485551  .00121476  00000-0  93439-3 0  9992
2 62915  42.9997   6.0671 0002633 262.9702  97.0866 15.70889387 25141
Epoch: 2025-07-10T18:50Z
TLE epoch observation values (Epoch: 2025-07-10T18:50:11.516Z)
Latitude
-0.00002°
Longitude
154.57294°
Altitude
356.344 km
Speed
7.697 km/s
True Right ascension
00h 24m 16s
True Declination
0° 00' 00"
Sunlit
Object was in daylight at epoch
Visualization orbit readout
Latitude
41.96537°
Longitude
-100.98746°
Altitude
360.672 km
Speed
7.698 km/s
Apparent Right ascension
05h 17m 58s
Apparent Declination
2° 47' 41"
Sunlit
Object is in daylight
Visualization observer readout
Local Sidereal Time
15:10:34
Azimuth
317.823° NNW
Elevation
-38.274°
Doppler factor
1
Orbital elements
Apogee altitude
360.109 km
Perigee altitude
356.562 km
Semi-major axis
6,736.473 km
Eccentricity
0.00026
Inclination
42.9997°
RAAN
6.0671°
Arg. of periapsis
262.9702°
True anomaly
Unknown
Mean anomaly
97.0866°
Eccentric anomaly
Unknown
Mean motion
3.92549 °/min
Orbital period
91.71 mins
BSTAR
0.00093439
Loading maneuver chart data...
Loading SW <> Apogee altitude chart data...
Loading historical data...
Loading historical data...
Loading historical data...
Loading historical data...
Loading historical data...
Loading historical data...
Loading historical data...

STARLINK-11555 Visibility forecast

Observer location: undefined°, undefined°

Span
Click to sort rows by Start time (UTC) header in descending order
Start Az.
Max El. time (UTC)
Max El. Az.
Max El.
End time (UTC)
End Az.
4 mins2025-07-11 14:52:56.156Z212.483° SW2025-07-11 14:54:56.156Z165.737° S26.438°2025-07-11 14:56:56.156Z98.311° ESE
4 mins2025-07-11 16:29:56.156Z275.59° WNW2025-07-11 16:30:56.156Z311.771° NW39.538°2025-07-11 16:33:56.156Z68.274° E
4 mins2025-07-11 18:05:56.156Z300.111° NW2025-07-11 18:07:56.156Z29.535° NE33.779°2025-07-11 18:09:56.156Z76.694° E
4 mins2025-07-11 19:41:56.156Z281.976° WNW2025-07-11 19:43:56.156Z171.126° S42.519°2025-07-11 19:45:56.156Z119.749° SE
|